Year,Month,Day,Hour,Minute,Value (Times are PST for temperature in C)
2022,10,15,00,00,13.10
2022,10,15,00,01,13.10
2022,10,15,00,02,13.10
2022,10,15,00,03,13.10
2022,10,15,00,04,13.10
2022,10,15,00,05,13.10
2022,10,15,00,06,13.10
2022,10,15,00,07,13.00
2022,10,15,00,08,13.00
2022,10,15,00,09,13.00
2022,10,15,00,10,13.00
2022,10,15,00,11,13.00
2022,10,15,00,12,13.00
2022,10,15,00,13,13.00
2022,10,15,00,14,13.00
2022,10,15,00,15,13.10
2022,10,15,00,16,13.10
2022,10,15,00,17,13.10
2022,10,15,00,18,13.20
2022,10,15,00,19,13.20
2022,10,15,00,20,13.20
2022,10,15,00,21,13.20
2022,10,15,00,22,13.20
2022,10,15,00,23,13.20
2022,10,15,00,24,13.20
2022,10,15,00,25,13.10
2022,10,15,00,26,13.00
2022,10,15,00,27,13.00
2022,10,15,00,28,12.90
2022,10,15,00,29,12.80
2022,10,15,00,30,12.70
2022,10,15,00,31,12.70
2022,10,15,00,32,12.70
2022,10,15,00,33,12.70
2022,10,15,00,34,12.70
2022,10,15,00,35,12.70
2022,10,15,00,36,12.70
2022,10,15,00,37,12.70
2022,10,15,00,38,12.70
2022,10,15,00,39,12.70
2022,10,15,00,40,12.70
2022,10,15,00,41,12.80
2022,10,15,00,42,12.80
2022,10,15,00,43,12.80
2022,10,15,00,44,12.80
2022,10,15,00,45,12.80
2022,10,15,00,46,12.80
2022,10,15,00,47,12.80
2022,10,15,00,48,12.80
2022,10,15,00,49,12.80
2022,10,15,00,50,12.80
2022,10,15,00,51,12.80
2022,10,15,00,52,12.70
2022,10,15,00,53,12.70
2022,10,15,00,54,12.70
2022,10,15,00,55,12.70
2022,10,15,00,56,12.70
2022,10,15,00,57,12.70
2022,10,15,00,58,12.80
2022,10,15,00,59,12.80
2022,10,15,01,00,12.80
2022,10,15,01,01,12.80
2022,10,15,01,02,12.80
2022,10,15,01,03,12.80
2022,10,15,01,04,12.80
2022,10,15,01,05,12.80
2022,10,15,01,06,12.80
2022,10,15,01,07,12.90
2022,10,15,01,08,12.90
2022,10,15,01,09,12.90
2022,10,15,01,10,12.90
2022,10,15,01,11,12.90
2022,10,15,01,12,12.90
2022,10,15,01,13,12.90
2022,10,15,01,14,12.90
2022,10,15,01,15,12.90
2022,10,15,01,16,12.90
2022,10,15,01,17,12.90
2022,10,15,01,18,12.90
2022,10,15,01,19,12.90
2022,10,15,01,20,12.90
2022,10,15,01,21,12.90
2022,10,15,01,22,12.90
2022,10,15,01,23,12.80
2022,10,15,01,24,12.80
2022,10,15,01,25,12.80
2022,10,15,01,26,12.80
2022,10,15,01,27,12.80
2022,10,15,01,28,12.70
2022,10,15,01,29,12.70
2022,10,15,01,30,12.70
2022,10,15,01,31,12.70
2022,10,15,01,32,12.70
2022,10,15,01,33,12.70
2022,10,15,01,34,12.70
2022,10,15,01,35,12.70
2022,10,15,01,36,12.70
2022,10,15,01,37,12.70
2022,10,15,01,38,12.70
2022,10,15,01,39,12.70
2022,10,15,01,40,12.70
2022,10,15,01,41,12.70
2022,10,15,01,42,12.60
2022,10,15,01,43,12.60
2022,10,15,01,44,12.60
2022,10,15,01,45,12.50
2022,10,15,01,46,12.40
2022,10,15,01,47,12.40
2022,10,15,01,48,12.30
2022,10,15,01,49,12.30
2022,10,15,01,50,12.30
2022,10,15,01,51,12.30
2022,10,15,01,52,12.30
2022,10,15,01,53,12.30
2022,10,15,01,54,12.30
2022,10,15,01,55,12.30
2022,10,15,01,56,12.30
2022,10,15,01,57,12.30
2022,10,15,01,58,12.30
2022,10,15,01,59,12.30
2022,10,15,02,00,12.30
2022,10,15,02,01,12.30
2022,10,15,02,02,12.30
2022,10,15,02,03,12.30
2022,10,15,02,04,12.20
2022,10,15,02,05,12.20
2022,10,15,02,06,12.10
2022,10,15,02,07,12.10
2022,10,15,02,08,12.00
2022,10,15,02,09,12.00
2022,10,15,02,10,12.00
2022,10,15,02,11,12.00
2022,10,15,02,12,12.00
2022,10,15,02,13,12.00
2022,10,15,02,14,12.00
2022,10,15,02,15,12.00
2022,10,15,02,16,12.10
2022,10,15,02,17,12.10
2022,10,15,02,18,12.10
2022,10,15,02,19,12.10
2022,10,15,02,20,12.10
2022,10,15,02,21,12.10
2022,10,15,02,22,12.00
2022,10,15,02,23,12.00
2022,10,15,02,24,12.00
2022,10,15,02,25,11.90
2022,10,15,02,26,11.90
2022,10,15,02,27,11.90
2022,10,15,02,28,11.90
2022,10,15,02,29,11.90
2022,10,15,02,30,11.90
2022,10,15,02,31,11.80
2022,10,15,02,32,11.80
2022,10,15,02,33,11.80
2022,10,15,02,34,11.70
2022,10,15,02,35,11.60
2022,10,15,02,36,11.60
2022,10,15,02,37,11.60
2022,10,15,02,38,11.50
2022,10,15,02,39,11.50
2022,10,15,02,40,11.50
2022,10,15,02,41,11.50
2022,10,15,02,42,11.50
2022,10,15,02,43,11.50
2022,10,15,02,44,11.60
2022,10,15,02,45,11.60
2022,10,15,02,46,11.60
2022,10,15,02,47,11.60
2022,10,15,02,48,11.60
2022,10,15,02,49,11.60
2022,10,15,02,50,11.60
2022,10,15,02,51,11.60
2022,10,15,02,52,11.60
2022,10,15,02,53,11.60
2022,10,15,02,54,11.60
2022,10,15,02,55,11.70
2022,10,15,02,56,11.70
2022,10,15,02,57,11.70
2022,10,15,02,58,11.70
2022,10,15,02,59,11.70
2022,10,15,03,00,11.80
2022,10,15,03,01,11.80
2022,10,15,03,02,11.80
2022,10,15,03,03,11.80
2022,10,15,03,04,11.80
2022,10,15,03,05,11.80
2022,10,15,03,06,11.80
2022,10,15,03,07,11.90
2022,10,15,03,08,11.90
2022,10,15,03,09,11.90
2022,10,15,03,10,11.90
2022,10,15,03,11,11.90
2022,10,15,03,12,11.90
2022,10,15,03,13,12.00
2022,10,15,03,14,12.00
2022,10,15,03,15,12.00
2022,10,15,03,16,11.90
2022,10,15,03,17,11.90
2022,10,15,03,18,11.90
2022,10,15,03,19,11.90
2022,10,15,03,20,11.90
2022,10,15,03,21,11.90
2022,10,15,03,22,11.90
2022,10,15,03,23,11.90
2022,10,15,03,24,11.90
2022,10,15,03,25,11.90
2022,10,15,03,26,11.90
2022,10,15,03,27,11.80
2022,10,15,03,28,11.80
2022,10,15,03,29,11.80
2022,10,15,03,30,11.80
2022,10,15,03,31,11.70
2022,10,15,03,32,11.70
2022,10,15,03,33,11.70
2022,10,15,03,34,11.70
2022,10,15,03,35,11.60
2022,10,15,03,36,11.60
2022,10,15,03,37,11.60
2022,10,15,03,38,11.60
2022,10,15,03,39,11.60
2022,10,15,03,40,11.60
2022,10,15,03,41,11.60
2022,10,15,03,42,11.60
2022,10,15,03,43,11.60
2022,10,15,03,44,11.60
2022,10,15,03,45,11.60
2022,10,15,03,46,11.60
2022,10,15,03,47,11.60
2022,10,15,03,48,11.60
2022,10,15,03,49,11.50
2022,10,15,03,50,11.50
2022,10,15,03,51,11.50
2022,10,15,03,52,11.40
2022,10,15,03,53,11.40
2022,10,15,03,54,11.40
2022,10,15,03,55,11.40
2022,10,15,03,56,11.40
2022,10,15,03,57,11.40
2022,10,15,03,58,11.40
2022,10,15,03,59,11.40
2022,10,15,04,00,11.50
2022,10,15,04,01,11.50
2022,10,15,04,02,11.60
2022,10,15,04,03,11.60
2022,10,15,04,04,11.60
2022,10,15,04,05,11.60
2022,10,15,04,06,11.60
2022,10,15,04,07,11.70
2022,10,15,04,08,11.70
2022,10,15,04,09,11.70
2022,10,15,04,10,11.70
2022,10,15,04,11,11.80
2022,10,15,04,12,11.80
2022,10,15,04,13,11.80
2022,10,15,04,14,11.80
2022,10,15,04,15,11.80
2022,10,15,04,16,11.90
2022,10,15,04,17,11.90
2022,10,15,04,18,11.80
2022,10,15,04,19,11.80
2022,10,15,04,20,11.80
2022,10,15,04,21,11.70
2022,10,15,04,22,11.70
2022,10,15,04,23,11.70
2022,10,15,04,24,11.70
2022,10,15,04,25,11.60
2022,10,15,04,26,11.60
2022,10,15,04,27,11.60
2022,10,15,04,28,11.60
2022,10,15,04,29,11.50
2022,10,15,04,30,11.50
2022,10,15,04,31,11.50
2022,10,15,04,32,11.50
2022,10,15,04,33,11.50
2022,10,15,04,34,11.60
2022,10,15,04,35,11.60
2022,10,15,04,36,11.70
2022,10,15,04,37,11.70
2022,10,15,04,38,11.80
2022,10,15,04,39,11.80
2022,10,15,04,40,11.80
2022,10,15,04,41,11.80
2022,10,15,04,42,11.80
2022,10,15,04,43,11.80
2022,10,15,04,44,11.80
2022,10,15,04,45,11.70
2022,10,15,04,46,11.70
2022,10,15,04,47,11.60
2022,10,15,04,48,11.50
2022,10,15,04,49,11.40
2022,10,15,04,50,11.30
2022,10,15,04,51,11.30
2022,10,15,04,52,11.20
2022,10,15,04,53,11.10
2022,10,15,04,54,11.10
2022,10,15,04,55,11.00
2022,10,15,04,56,11.00
2022,10,15,04,57,10.90
2022,10,15,04,58,10.90
2022,10,15,04,59,10.90
2022,10,15,05,00,10.90
2022,10,15,05,01,10.90
2022,10,15,05,02,10.90
2022,10,15,05,03,10.80
2022,10,15,05,04,10.80
2022,10,15,05,05,10.80
2022,10,15,05,06,10.90
2022,10,15,05,07,10.90
2022,10,15,05,08,10.90
2022,10,15,05,09,10.90
2022,10,15,05,10,10.90
2022,10,15,05,11,10.90
2022,10,15,05,12,11.00
2022,10,15,05,13,11.00
2022,10,15,05,14,11.00
2022,10,15,05,15,11.00
2022,10,15,05,16,11.10
2022,10,15,05,17,11.10
2022,10,15,05,18,11.10
2022,10,15,05,19,11.10
2022,10,15,05,20,11.10
2022,10,15,05,21,11.10
2022,10,15,05,22,11.10
2022,10,15,05,23,11.10
2022,10,15,05,24,11.10
2022,10,15,05,25,11.10
2022,10,15,05,26,11.10
2022,10,15,05,27,11.20
2022,10,15,05,28,11.20
2022,10,15,05,29,11.20
2022,10,15,05,30,11.20
2022,10,15,05,31,11.20
2022,10,15,05,32,11.20
2022,10,15,05,33,11.20
2022,10,15,05,34,11.20
2022,10,15,05,35,11.20
2022,10,15,05,36,11.20
2022,10,15,05,37,11.20
2022,10,15,05,38,11.10
2022,10,15,05,39,11.10
2022,10,15,05,40,11.10
2022,10,15,05,41,11.00
2022,10,15,05,42,11.00
2022,10,15,05,43,11.00
2022,10,15,05,44,10.90
2022,10,15,05,45,10.90
2022,10,15,05,46,10.80
2022,10,15,05,47,10.80
2022,10,15,05,48,10.80
2022,10,15,05,49,10.80
2022,10,15,05,50,10.80
2022,10,15,05,51,10.80
2022,10,15,05,52,10.80
2022,10,15,05,53,10.80
2022,10,15,05,54,10.80
2022,10,15,05,55,10.80
2022,10,15,05,56,10.80
2022,10,15,05,57,10.80
2022,10,15,05,58,10.90
2022,10,15,05,59,10.90
2022,10,15,06,00,10.90
2022,10,15,06,01,11.00
2022,10,15,06,02,11.00
2022,10,15,06,03,11.10
2022,10,15,06,04,11.10
2022,10,15,06,05,11.20
2022,10,15,06,06,11.30
2022,10,15,06,07,11.30
2022,10,15,06,08,11.30
2022,10,15,06,09,11.30
2022,10,15,06,10,11.30
2022,10,15,06,11,11.30
2022,10,15,06,12,11.30
2022,10,15,06,13,11.30
2022,10,15,06,14,11.30
2022,10,15,06,15,11.30
2022,10,15,06,16,11.30
2022,10,15,06,17,11.30
2022,10,15,06,18,11.30
2022,10,15,06,19,11.30
2022,10,15,06,20,11.40
2022,10,15,06,21,11.40
2022,10,15,06,22,11.40
2022,10,15,06,23,11.40
2022,10,15,06,24,11.40
2022,10,15,06,25,11.40
2022,10,15,06,26,11.40
2022,10,15,06,27,11.40
2022,10,15,06,28,11.40
2022,10,15,06,29,11.40
2022,10,15,06,30,11.40
2022,10,15,06,31,11.40
2022,10,15,06,32,11.30
2022,10,15,06,33,11.30
2022,10,15,06,34,11.20
2022,10,15,06,35,11.20
2022,10,15,06,36,11.10
2022,10,15,06,37,11.10
2022,10,15,06,38,11.10
2022,10,15,06,39,11.00
2022,10,15,06,40,11.00
2022,10,15,06,41,11.00
2022,10,15,06,42,10.90
2022,10,15,06,43,10.90
2022,10,15,06,44,10.90
2022,10,15,06,45,10.80
2022,10,15,06,46,10.80
2022,10,15,06,47,10.70
2022,10,15,06,48,10.70
2022,10,15,06,49,10.70
2022,10,15,06,50,10.60
2022,10,15,06,51,10.60
2022,10,15,06,52,10.50
2022,10,15,06,53,10.50
2022,10,15,06,54,10.40
2022,10,15,06,55,10.40
2022,10,15,06,56,10.30
2022,10,15,06,57,10.30
2022,10,15,06,58,10.20
2022,10,15,06,59,10.20
2022,10,15,07,00,10.20
2022,10,15,07,01,10.20
2022,10,15,07,02,10.20
2022,10,15,07,03,10.10
2022,10,15,07,04,10.10
2022,10,15,07,05,10.10
2022,10,15,07,06,10.10
2022,10,15,07,07,10.10
2022,10,15,07,08,10.20
2022,10,15,07,09,10.20
2022,10,15,07,10,10.20
2022,10,15,07,11,10.20
2022,10,15,07,12,10.20
2022,10,15,07,13,10.20
2022,10,15,07,14,10.20
2022,10,15,07,15,10.20
2022,10,15,07,16,10.20
2022,10,15,07,17,10.30
2022,10,15,07,18,10.30
2022,10,15,07,19,10.30
2022,10,15,07,20,10.30
2022,10,15,07,21,10.30
2022,10,15,07,22,10.30
2022,10,15,07,23,10.20
2022,10,15,07,24,10.30
2022,10,15,07,25,10.30
2022,10,15,07,26,10.30
2022,10,15,07,27,10.40
2022,10,15,07,28,10.40
2022,10,15,07,29,10.40
2022,10,15,07,30,10.50
2022,10,15,07,31,10.50
2022,10,15,07,32,10.60
2022,10,15,07,33,10.70
2022,10,15,07,34,10.70
2022,10,15,07,35,10.70
2022,10,15,07,36,10.70
2022,10,15,07,37,10.80
2022,10,15,07,38,10.80
2022,10,15,07,39,10.80
2022,10,15,07,40,10.80
2022,10,15,07,41,10.80
2022,10,15,07,42,10.80
2022,10,15,07,43,10.80
2022,10,15,07,44,10.80
2022,10,15,07,45,10.80
2022,10,15,07,46,10.90
2022,10,15,07,47,10.90
2022,10,15,07,48,10.90
2022,10,15,07,49,11.00
2022,10,15,07,50,11.00
2022,10,15,07,51,11.00
2022,10,15,07,52,11.00
2022,10,15,07,53,10.90
2022,10,15,07,54,10.90
2022,10,15,07,55,10.90
2022,10,15,07,56,10.90
2022,10,15,07,57,10.90
2022,10,15,07,58,10.90
2022,10,15,07,59,10.90
2022,10,15,08,00,10.90
2022,10,15,08,01,10.90
2022,10,15,08,02,10.90
2022,10,15,08,03,10.90
2022,10,15,08,04,10.90
2022,10,15,08,05,10.90
2022,10,15,08,06,10.90
2022,10,15,08,07,11.00
2022,10,15,08,08,11.00
2022,10,15,08,09,11.00
2022,10,15,08,10,11.10
2022,10,15,08,11,11.10
2022,10,15,08,12,11.10
2022,10,15,08,13,11.10
2022,10,15,08,14,11.00
2022,10,15,08,15,11.00
2022,10,15,08,16,11.00
2022,10,15,08,17,10.90
2022,10,15,08,18,10.90
2022,10,15,08,19,11.00
2022,10,15,08,20,11.00
2022,10,15,08,21,11.00
2022,10,15,08,22,11.00
2022,10,15,08,23,11.00
2022,10,15,08,24,11.00
2022,10,15,08,25,11.10
2022,10,15,08,26,11.10
2022,10,15,08,27,11.10
2022,10,15,08,28,11.10
2022,10,15,08,29,11.10
2022,10,15,08,30,11.20
2022,10,15,08,31,11.20
2022,10,15,08,32,11.20
2022,10,15,08,33,11.20
2022,10,15,08,34,11.30
2022,10,15,08,35,11.30
2022,10,15,08,36,11.30
2022,10,15,08,37,11.40
2022,10,15,08,38,11.40
2022,10,15,08,39,11.40
2022,10,15,08,40,11.50
2022,10,15,08,41,11.50
2022,10,15,08,42,11.50
2022,10,15,08,43,11.50
2022,10,15,08,44,11.60
2022,10,15,08,45,11.60
2022,10,15,08,46,11.60
2022,10,15,08,47,11.60
2022,10,15,08,48,11.70
2022,10,15,08,49,11.70
2022,10,15,08,50,11.70
2022,10,15,08,51,11.80
2022,10,15,08,52,11.80
2022,10,15,08,53,11.80
2022,10,15,08,54,11.90
2022,10,15,08,55,11.90
2022,10,15,08,56,12.00
2022,10,15,08,57,12.10
2022,10,15,08,58,12.20
2022,10,15,08,59,12.30
2022,10,15,09,00,12.40
2022,10,15,09,01,12.60
2022,10,15,09,02,12.70
2022,10,15,09,03,12.80
2022,10,15,09,04,12.90
2022,10,15,09,05,13.10
2022,10,15,09,06,13.20
2022,10,15,09,07,13.30
2022,10,15,09,08,13.40
2022,10,15,09,09,13.50
2022,10,15,09,10,13.60
2022,10,15,09,11,13.70
2022,10,15,09,12,13.80
2022,10,15,09,13,13.90
2022,10,15,09,14,14.00
2022,10,15,09,15,14.10
2022,10,15,09,16,14.10
2022,10,15,09,17,14.20
2022,10,15,09,18,14.30
2022,10,15,09,19,14.30
2022,10,15,09,20,14.30
2022,10,15,09,21,14.40
2022,10,15,09,22,14.40
2022,10,15,09,23,14.40
2022,10,15,09,24,14.40
2022,10,15,09,25,14.40
2022,10,15,09,26,14.50
2022,10,15,09,27,14.50
2022,10,15,09,28,14.60
2022,10,15,09,29,14.70
2022,10,15,09,30,14.70
2022,10,15,09,31,14.70
2022,10,15,09,32,14.80
2022,10,15,09,33,14.80
2022,10,15,09,34,14.80
2022,10,15,09,35,14.90
2022,10,15,09,36,14.90
2022,10,15,09,37,15.00
2022,10,15,09,38,15.10
2022,10,15,09,39,15.10
2022,10,15,09,40,15.20
2022,10,15,09,41,15.20
2022,10,15,09,42,15.30
2022,10,15,09,43,15.30
2022,10,15,09,44,15.30
2022,10,15,09,45,15.30
2022,10,15,09,46,15.30
2022,10,15,09,47,15.40
2022,10,15,09,48,15.40
2022,10,15,09,49,15.40
2022,10,15,09,50,15.40
2022,10,15,09,51,15.50
2022,10,15,09,52,15.50
2022,10,15,09,53,15.60
2022,10,15,09,54,15.60
2022,10,15,09,55,15.60
2022,10,15,09,56,15.50
2022,10,15,09,57,15.50
2022,10,15,09,58,15.50
2022,10,15,09,59,15.50
2022,10,15,10,00,15.40
2022,10,15,10,01,15.40
2022,10,15,10,02,15.30
2022,10,15,10,03,15.20
2022,10,15,10,04,15.20
2022,10,15,10,05,15.20
2022,10,15,10,06,15.20
2022,10,15,10,07,15.20
2022,10,15,10,08,15.20
2022,10,15,10,09,15.10
2022,10,15,10,10,15.10
2022,10,15,10,11,15.10
2022,10,15,10,12,15.10
2022,10,15,10,13,15.00
2022,10,15,10,14,15.00
2022,10,15,10,15,15.00
2022,10,15,10,16,15.00
2022,10,15,10,17,15.00
2022,10,15,10,18,15.10
2022,10,15,10,19,15.10
2022,10,15,10,20,15.10
2022,10,15,10,21,15.20
2022,10,15,10,22,15.20
2022,10,15,10,23,15.30
2022,10,15,10,24,15.30
2022,10,15,10,25,15.30
2022,10,15,10,26,15.40
2022,10,15,10,27,15.50
2022,10,15,10,28,15.50
2022,10,15,10,29,15.60
2022,10,15,10,30,15.60
2022,10,15,10,31,15.60
2022,10,15,10,32,15.70
2022,10,15,10,33,15.70
2022,10,15,10,34,15.70
2022,10,15,10,35,15.80
2022,10,15,10,36,15.90
2022,10,15,10,37,16.00
2022,10,15,10,38,16.10
2022,10,15,10,39,16.20
2022,10,15,10,40,16.20
2022,10,15,10,41,16.30
2022,10,15,10,42,16.40
2022,10,15,10,43,16.50
2022,10,15,10,44,16.50
2022,10,15,10,45,16.60
2022,10,15,10,46,16.70
2022,10,15,10,47,16.80
2022,10,15,10,48,16.80
2022,10,15,10,49,16.90
2022,10,15,10,50,17.00
2022,10,15,10,51,17.10
2022,10,15,10,52,17.20
2022,10,15,10,53,17.30
2022,10,15,10,54,17.30
2022,10,15,10,55,17.40
2022,10,15,10,56,17.50
2022,10,15,10,57,17.50
2022,10,15,10,58,17.60
2022,10,15,10,59,17.70
2022,10,15,11,00,17.70
2022,10,15,11,01,17.70
2022,10,15,11,02,17.60
2022,10,15,11,03,17.60
2022,10,15,11,04,17.50
2022,10,15,11,05,17.40
2022,10,15,11,06,17.40
2022,10,15,11,07,17.30
2022,10,15,11,08,17.30
2022,10,15,11,09,17.30
2022,10,15,11,10,17.40
2022,10,15,11,11,17.40
2022,10,15,11,12,17.50
2022,10,15,11,13,17.60
2022,10,15,11,14,17.60
2022,10,15,11,15,17.70
2022,10,15,11,16,17.90
2022,10,15,11,17,18.00
2022,10,15,11,18,18.10
2022,10,15,11,19,18.20
2022,10,15,11,20,18.20
2022,10,15,11,21,18.30
2022,10,15,11,22,18.40
2022,10,15,11,23,18.50
2022,10,15,11,24,18.60
2022,10,15,11,25,18.70
2022,10,15,11,26,18.80
2022,10,15,11,27,18.90
2022,10,15,11,28,19.10
2022,10,15,11,29,19.20
2022,10,15,11,30,19.30
2022,10,15,11,31,19.40
2022,10,15,11,32,19.60
2022,10,15,11,33,19.70
2022,10,15,11,34,19.80
2022,10,15,11,35,19.90
2022,10,15,11,36,20.00
2022,10,15,11,37,20.10
2022,10,15,11,38,20.20
2022,10,15,11,39,20.30
2022,10,15,11,40,20.40
2022,10,15,11,41,20.50
2022,10,15,11,42,20.50
2022,10,15,11,43,20.60
2022,10,15,11,44,20.70
2022,10,15,11,45,20.80
2022,10,15,11,46,20.80
2022,10,15,11,47,20.90
2022,10,15,11,48,20.90
2022,10,15,11,49,21.00
2022,10,15,11,50,21.10
2022,10,15,11,51,21.10
2022,10,15,11,52,21.20
2022,10,15,11,53,21.30
2022,10,15,11,54,21.30
2022,10,15,11,55,21.30
2022,10,15,11,56,21.40
2022,10,15,11,57,21.40
2022,10,15,11,58,21.50
2022,10,15,11,59,21.50
2022,10,15,12,00,21.60
2022,10,15,12,01,21.70
2022,10,15,12,02,21.70
2022,10,15,12,03,21.80
2022,10,15,12,04,21.80
2022,10,15,12,05,21.90
2022,10,15,12,06,21.90
2022,10,15,12,07,22.00
2022,10,15,12,08,22.10
2022,10,15,12,09,22.10
2022,10,15,12,10,22.20
2022,10,15,12,11,22.20
2022,10,15,12,12,22.20
2022,10,15,12,13,22.30
2022,10,15,12,14,22.30
2022,10,15,12,15,22.30
2022,10,15,12,16,22.30
2022,10,15,12,17,22.30
2022,10,15,12,18,22.30
2022,10,15,12,19,22.40
2022,10,15,12,20,22.40
2022,10,15,12,21,22.40
2022,10,15,12,22,22.50
2022,10,15,12,23,22.60
2022,10,15,12,24,22.60
2022,10,15,12,25,22.60
2022,10,15,12,26,22.60
2022,10,15,12,27,22.60
2022,10,15,12,28,22.60
2022,10,15,12,29,22.60
2022,10,15,12,30,22.60
2022,10,15,12,31,22.60
2022,10,15,12,32,22.60
2022,10,15,12,33,22.60
2022,10,15,12,34,22.60
2022,10,15,12,35,22.60
2022,10,15,12,36,22.60
2022,10,15,12,37,22.60
2022,10,15,12,38,22.60
2022,10,15,12,39,22.60
2022,10,15,12,40,22.60
2022,10,15,12,41,22.60
2022,10,15,12,42,22.70
2022,10,15,12,43,22.70
2022,10,15,12,44,22.70
2022,10,15,12,45,22.70
2022,10,15,12,46,22.70
2022,10,15,12,47,22.70
2022,10,15,12,48,22.70
2022,10,15,12,49,22.70
2022,10,15,12,50,22.80
2022,10,15,12,51,22.80
2022,10,15,12,52,22.80
2022,10,15,12,53,22.80
2022,10,15,12,54,22.70
2022,10,15,12,55,22.70
2022,10,15,12,56,22.70
2022,10,15,12,57,22.80
2022,10,15,12,58,22.80
2022,10,15,12,59,22.90
2022,10,15,13,00,22.90
2022,10,15,13,01,22.90
2022,10,15,13,02,22.90
2022,10,15,13,03,22.90
2022,10,15,13,04,22.90
2022,10,15,13,05,22.90
2022,10,15,13,06,22.90
2022,10,15,13,07,22.90
2022,10,15,13,08,23.00
2022,10,15,13,09,23.00
2022,10,15,13,10,23.00
2022,10,15,13,11,23.00
2022,10,15,13,12,23.00
2022,10,15,13,13,23.10
2022,10,15,13,14,23.10
2022,10,15,13,15,23.10
2022,10,15,13,16,23.10
2022,10,15,13,17,23.10
2022,10,15,13,18,23.10
2022,10,15,13,19,23.10
2022,10,15,13,20,23.20
2022,10,15,13,21,23.20
2022,10,15,13,22,23.20
2022,10,15,13,23,23.20
2022,10,15,13,24,23.20
2022,10,15,13,25,23.20
2022,10,15,13,26,23.20
2022,10,15,13,27,23.20
2022,10,15,13,28,23.20
2022,10,15,13,29,23.20
2022,10,15,13,30,23.30
2022,10,15,13,31,23.30
2022,10,15,13,32,23.30
2022,10,15,13,33,23.30
2022,10,15,13,34,23.30
2022,10,15,13,35,23.40
2022,10,15,13,36,23.40
2022,10,15,13,37,23.50
2022,10,15,13,38,23.50
2022,10,15,13,39,23.60
2022,10,15,13,40,23.70
2022,10,15,13,41,23.70
2022,10,15,13,42,23.70
2022,10,15,13,43,23.60
2022,10,15,13,44,23.60
2022,10,15,13,45,23.60
2022,10,15,13,46,23.60
2022,10,15,13,47,23.60
2022,10,15,13,48,23.60
2022,10,15,13,49,23.60
2022,10,15,13,50,23.50
2022,10,15,13,51,23.40
2022,10,15,13,52,23.40
2022,10,15,13,53,23.40
2022,10,15,13,54,23.40
2022,10,15,13,55,23.40
2022,10,15,13,56,23.40
2022,10,15,13,57,23.40
2022,10,15,13,58,23.40
2022,10,15,13,59,23.40
2022,10,15,14,00,23.50
2022,10,15,14,01,23.50
2022,10,15,14,02,23.60
2022,10,15,14,03,23.60
2022,10,15,14,04,23.70
2022,10,15,14,05,23.70
2022,10,15,14,06,23.70
2022,10,15,14,07,23.70
2022,10,15,14,08,23.70
2022,10,15,14,09,23.70
2022,10,15,14,10,23.70
2022,10,15,14,11,23.70
2022,10,15,14,12,23.70
2022,10,15,14,13,23.70
2022,10,15,14,14,23.70
2022,10,15,14,15,23.70
2022,10,15,14,16,23.70
2022,10,15,14,17,23.70
2022,10,15,14,18,23.70
2022,10,15,14,19,23.80
2022,10,15,14,20,23.80
2022,10,15,14,21,23.80
2022,10,15,14,22,23.80
2022,10,15,14,23,23.90
2022,10,15,14,24,23.90
2022,10,15,14,25,23.90
2022,10,15,14,26,23.90
2022,10,15,14,27,23.90
2022,10,15,14,28,23.90
2022,10,15,14,29,23.90
2022,10,15,14,30,23.90
2022,10,15,14,31,23.90
2022,10,15,14,32,23.90
2022,10,15,14,33,23.90
2022,10,15,14,34,23.90
2022,10,15,14,35,23.90
2022,10,15,14,36,23.80
2022,10,15,14,37,23.80
2022,10,15,14,38,23.70
2022,10,15,14,39,23.70
2022,10,15,14,40,23.60
2022,10,15,14,41,23.60
2022,10,15,14,42,23.60
2022,10,15,14,43,23.50
2022,10,15,14,44,23.40
2022,10,15,14,45,23.40
2022,10,15,14,46,23.40
2022,10,15,14,47,23.40
2022,10,15,14,48,23.40
2022,10,15,14,49,23.40
2022,10,15,14,50,23.50
2022,10,15,14,51,23.50
2022,10,15,14,52,23.50
2022,10,15,14,53,23.50
2022,10,15,14,54,23.50
2022,10,15,14,55,23.60
2022,10,15,14,56,23.60
2022,10,15,14,57,23.60
2022,10,15,14,58,23.60
2022,10,15,14,59,23.60
2022,10,15,15,00,23.50
2022,10,15,15,01,23.50
2022,10,15,15,02,23.50
2022,10,15,15,03,23.50
2022,10,15,15,04,23.50
2022,10,15,15,05,23.50
2022,10,15,15,06,23.60
2022,10,15,15,07,23.60
2022,10,15,15,08,23.60
2022,10,15,15,09,23.60
2022,10,15,15,10,23.60
2022,10,15,15,11,23.60
2022,10,15,15,12,23.60
2022,10,15,15,13,23.60
2022,10,15,15,14,23.60
2022,10,15,15,15,23.60
2022,10,15,15,16,23.60
2022,10,15,15,17,23.70
2022,10,15,15,18,23.70
2022,10,15,15,19,23.70
2022,10,15,15,20,23.70
2022,10,15,15,21,23.70
2022,10,15,15,22,23.70
2022,10,15,15,23,23.70
2022,10,15,15,24,23.70
2022,10,15,15,25,23.70
2022,10,15,15,26,23.70
2022,10,15,15,27,23.70
2022,10,15,15,28,23.70
2022,10,15,15,29,23.70
2022,10,15,15,30,23.70
2022,10,15,15,31,23.70
2022,10,15,15,32,23.70
2022,10,15,15,33,23.70
2022,10,15,15,34,23.70
2022,10,15,15,35,23.70
2022,10,15,15,36,23.70
2022,10,15,15,37,23.70
2022,10,15,15,38,23.70
2022,10,15,15,39,23.80
2022,10,15,15,40,23.80
2022,10,15,15,41,23.80
2022,10,15,15,42,23.80
2022,10,15,15,43,23.80
2022,10,15,15,44,23.80
2022,10,15,15,45,23.70
2022,10,15,15,46,23.70
2022,10,15,15,47,23.70
2022,10,15,15,48,23.70
2022,10,15,15,49,23.70
2022,10,15,15,50,23.70
2022,10,15,15,51,23.70
2022,10,15,15,52,23.70
2022,10,15,15,53,23.70
2022,10,15,15,54,23.70
2022,10,15,15,55,23.80
2022,10,15,15,56,23.80
2022,10,15,15,57,23.80
2022,10,15,15,58,23.80
2022,10,15,15,59,23.80
2022,10,15,16,00,23.80
2022,10,15,16,01,23.80
2022,10,15,16,02,23.70
2022,10,15,16,03,23.70
2022,10,15,16,04,23.60
2022,10,15,16,05,23.60
2022,10,15,16,06,23.50
2022,10,15,16,07,23.40
2022,10,15,16,08,23.20
2022,10,15,16,09,23.00
2022,10,15,16,10,22.70
2022,10,15,16,11,22.30
2022,10,15,16,12,21.90
2022,10,15,16,13,21.50
2022,10,15,16,14,21.10
2022,10,15,16,15,20.80
2022,10,15,16,16,20.40
2022,10,15,16,17,20.20
2022,10,15,16,18,19.90
2022,10,15,16,19,19.70
2022,10,15,16,20,19.50
2022,10,15,16,21,19.40
2022,10,15,16,22,19.30
2022,10,15,16,23,19.20
2022,10,15,16,24,19.10
2022,10,15,16,25,19.00
2022,10,15,16,26,18.90
2022,10,15,16,27,18.90
2022,10,15,16,28,18.80
2022,10,15,16,29,18.80
2022,10,15,16,30,18.90
2022,10,15,16,31,19.00
2022,10,15,16,32,19.10
2022,10,15,16,33,19.20
2022,10,15,16,34,19.30
2022,10,15,16,35,19.50
2022,10,15,16,36,19.60
2022,10,15,16,37,19.80
2022,10,15,16,38,20.00
2022,10,15,16,39,20.20
2022,10,15,16,40,20.30
2022,10,15,16,41,20.50
2022,10,15,16,42,20.70
2022,10,15,16,43,20.80
2022,10,15,16,44,20.90
2022,10,15,16,45,21.00
2022,10,15,16,46,21.10
2022,10,15,16,47,21.20
2022,10,15,16,48,21.20
2022,10,15,16,49,21.20
2022,10,15,16,50,21.20
2022,10,15,16,51,21.20
2022,10,15,16,52,21.10
2022,10,15,16,53,21.00
2022,10,15,16,54,20.90
2022,10,15,16,55,20.70
2022,10,15,16,56,20.50
2022,10,15,16,57,20.30
2022,10,15,16,58,20.20
2022,10,15,16,59,20.00
2022,10,15,17,00,19.90
2022,10,15,17,01,19.80
2022,10,15,17,02,19.60
2022,10,15,17,03,19.50
2022,10,15,17,04,19.30
2022,10,15,17,05,19.10
2022,10,15,17,06,18.90
2022,10,15,17,07,18.70
2022,10,15,17,08,18.50
2022,10,15,17,09,18.30
2022,10,15,17,10,18.20
2022,10,15,17,11,18.10
2022,10,15,17,12,18.10
2022,10,15,17,13,18.10
2022,10,15,17,14,18.10
2022,10,15,17,15,18.00
2022,10,15,17,16,18.10
2022,10,15,17,17,18.10
2022,10,15,17,18,18.10
2022,10,15,17,19,18.10